Location: Hamayl? Da??
(36.7028°N, 30.1716°E)
Time: 13:54:08
(UTC+00:00)

Cosmos 2369 Rocket - Pass Details

Date: 04 August 2024
Orbit: 826 x 853 km, 71.0° (Epoch: 11 September)

Event Time Altitude Azimuth Distance (km) Brightness Sun altitude
Rises 18:00:26 0° 200° (SSW) 3,351 5.2 -11.2°
Reaches altitude 10° 18:02:50 10° 200° (SSW) 2,423 4.5 -11.6°
Maximum altitude 18:08:24 90° 281° (W) 836 2.2 -12.6°
Drops below altitude 10° 18:14:03 10° 22° (NNE) 2,453 4.8 -13.5°
Sets 18:16:30 0° 22° (NNE) 3,395 5.5 -13.9°
